Weather History for Flagstaff, AZ

Change the Weather History Date:

Tuesday, September 6, 2011

  Actual Average Record
Temperature  
Mean Temperature 65 °F 61 °F  
Max Temperature 74 °F 76 °F 87 °F (1977)
Min Temperature 56 °F 45 °F 33 °F (1985)
Degree Days  
Heating Degree Days 0 5  
Month to date heating degree days 0 24  
Since 1 July heating degree days 26 112  
Cooling Degree Days 0 0  
Month to date cooling degree days 5 0  
Year to date cooling degree days 170 114  
Growing Degree Days 14 (Base 50)    
Moisture  
Dew Point 55 °F    
Average Humidity 66    
Maximum Humidity 93    
Minimum Humidity 38    
Precipitation  
Precipitation 0.09 in 0.08 in 0.82 in (2002)
Month to date precipitation 0.20 0.54  
Year to date precipitation 11.54 14.73  
Snow  
Snow 0.00 in 0.00 in 0.00 in (2013)
Month to date snowfall 0.0 0.0  
Since 1 July snowfall 0.0 0.0  
Snow Depth 0.00 in    
Sea Level Pressure  
Sea Level Pressure 30.12 in    
Wind  
Wind Speed 3 mph (ENE)    
Max Wind Speed 14 mph    
Max Gust Speed 17 mph    
Visibility 10 miles    
Events Rain    
T = Trace of Precipitation, MM = Missing Value Source: NWS Daily Summary

Daily Weather History Graph

Daily Weather History Graph

Search for Another Location

Airport:

Trip Planner

Search our weather history database for the weather conditions in past years. The results will help you decide how hot, cold, wet, or windy it might be!

Date:

Astronomy

Sep. 06, 2011 Rise Set
Actual Time 6:02 AM MST 6:46 PM MST
Civil Twilight 5:37 AM MST 7:12 PM MST
Nautical Twilight 5:06 AM MST 7:42 PM MST
Astronomical Twilight 4:35 AM MST 8:13 PM MST
Moon 3:15 PM MST (9/6) 12:31 AM MST (9/6)
Length of Visible Light 13h 35m
Length of Day
12h 43m
Waxing Gibbous, 71% of the Moon is Illuminated
Sep 6
Waxing Gibbous
Sep 12
Full
Sep 20
Last Quarter
Sep 27
New
Oct 3
First Quarter

Hourly Weather History & Observations

Time (MST) Temp. Dew Point Humidity Pressure Visibility Wind Dir Wind Speed Gust Speed Precip Events Conditions
12:57 AM 57.0 °F 55.9 °F 96% 30.01 in 8.0 mi NE 3.5 mph - 0.07 in Rain Light Rain
1:57 AM 55.9 °F 55.9 °F 100% 29.99 in 8.0 mi East 3.5 mph - 0.00 in   Clear
2:57 AM 57.0 °F 55.9 °F 96% 29.99 in 10.0 mi Calm Calm - N/A   Mostly Cloudy
3:57 AM 57.0 °F 55.9 °F 96% 30.00 in 10.0 mi NE 3.5 mph - N/A   Overcast
4:57 AM 57.0 °F 55.0 °F 93% 30.01 in 10.0 mi Calm Calm - N/A   Overcast
6:57 AM 57.0 °F 55.0 °F 93% 30.09 in 10.0 mi ENE 4.6 mph - N/A   Overcast
7:57 AM 57.9 °F 55.9 °F 93% 30.11 in 10.0 mi East 5.8 mph - N/A   Mostly Cloudy
8:08 AM 57.2 °F 55.4 °F 94% 30.36 in 10.0 mi ESE 5.8 mph - N/A   Mostly Cloudy
8:15 AM 57.2 °F 55.4 °F 94% 30.35 in 10.0 mi East 5.8 mph - N/A   Overcast
8:37 AM 59.0 °F 55.4 °F 88% 30.36 in 10.0 mi NE 4.6 mph - N/A   Overcast
8:57 AM 59.0 °F 55.9 °F 90% 30.12 in 10.0 mi East 5.8 mph - N/A   Overcast
9:18 AM 60.8 °F 55.4 °F 82% 30.36 in 10.0 mi ENE 9.2 mph - N/A   Mostly Cloudy
9:57 AM 59.0 °F 55.0 °F 87% 30.14 in 6.0 mi WSW 3.5 mph - N/A   Mostly Cloudy
10:06 AM 59.0 °F 55.4 °F 88% 30.37 in 4.0 mi South 4.6 mph - 0.02 in Rain Light Rain
10:19 AM 60.8 °F 55.4 °F 82% 30.37 in 10.0 mi ESE 4.6 mph - 0.02 in   Mostly Cloudy
10:57 AM 61.0 °F 55.9 °F 83% 30.12 in 10.0 mi ENE 3.5 mph - 0.02 in Rain Light Rain
11:57 AM 63.0 °F 55.9 °F 78% 30.09 in 10.0 mi East 4.6 mph - 0.00 in   Mostly Cloudy
12:57 PM 68.0 °F 55.9 °F 65% 30.06 in 10.0 mi NNE 3.5 mph - N/A   Scattered Clouds
1:57 PM 69.1 °F 54.0 °F 58% 30.04 in 10.0 mi Variable 3.5 mph - N/A   Mostly Cloudy
2:57 PM 73.0 °F 51.1 °F 46% 30.00 in 10.0 mi WNW 8.1 mph - N/A   Mostly Cloudy
3:57 PM 73.0 °F 46.9 °F 39% 29.99 in 10.0 mi Variable 3.5 mph - N/A   Mostly Cloudy
4:57 PM 72.0 °F 48.0 °F 43% 29.99 in 10.0 mi WNW 3.5 mph - N/A   Scattered Clouds
5:57 PM 66.0 °F 57.9 °F 75% 30.02 in 10.0 mi East 9.2 mph - N/A   Partly Cloudy
6:57 PM 63.0 °F 57.9 °F 84% 30.04 in 10.0 mi East 3.5 mph - N/A   Partly Cloudy
7:57 PM 62.1 °F 59.0 °F 90% 30.06 in 10.0 mi East 5.8 mph - N/A   Mostly Cloudy
8:57 PM 62.1 °F 59.0 °F 90% 30.08 in 10.0 mi Calm Calm - N/A   Overcast
9:57 PM 61.0 °F 57.9 °F 90% 30.09 in 10.0 mi Calm Calm - N/A   Mostly Cloudy
10:57 PM 61.0 °F 57.9 °F 90% 30.08 in 10.0 mi Calm Calm - N/A   Overcast
11:57 PM 60.1 °F 57.0 °F 90% 30.07 in 10.0 mi Calm Calm - N/A   Overcast